Regional Weather Roundup
Issued by NWS

Home | Current Version | Previous Version | Text Only | Print | Product List | Glossary Off
Versions: 1 2 3 4 5 6 7 8 9 10 11 12 13 14 15 16 17 18 19 20 21 22 23 24 25 26 27 28 29 30 31 32 33 34 35 36 37 38 39 40 41 42 43 44 45 46 47 48 49 50

824
ASUS43 KMKX 021611
RWRWI

WISCONSIN REGIONAL WEATHER ROUNDUP
NATIONAL WEATHER SERVICE MILWAUKEE/SULLIVAN WI
1100 AM CDT MON MAY 02 2016

NOTE: "FAIR" INDICATES FEW OR NO CLOUDS BELOW 12,000 FEET WITH NO
SIGNIFICANT WEATHER AND/OR OBSTRUCTIONS TO VISIBILITY.

WIZ001-002-006>008-014>016-023>028-021700-
NORTHWEST WISCONSIN

CITY           SKY/WX    TMP DP  RH WIND       PRES   REMARKS
SUPERIOR ARPT  SUNNY     54  36  51 NE3       30.11F
ASHLAND        SUNNY     57  38  48 VRB5      30.12F
HAYWARD        SUNNY     58  33  39 CALM      30.09F
SIREN          SUNNY     58  31  35 CALM      30.10S
CUMBERLAND     SUNNY     55  34  44 CALM      30.10S
RICE LAKE      SUNNY     58  34  41 W5        30.11F
CHETEK         SUNNY     58  35  42 SW7       30.10F
LADYSMITH      SUNNY     57  33  40 W8        30.12F
EAU CLAIRE     SUNNY     60  33  36 W6        30.10F
MENOMONIE      SUNNY     62  33  33 SW8       30.10F
NEW RICHMOND   SUNNY     58  34  39 NE3       30.11S
OSCEOLA        SUNNY     58  38  48 N5        30.13F
$$

WIZ003>005-009-010-017-018-021700-
NORTH CENTRAL WISCONSIN

CITY           SKY/WX    TMP DP  RH WIND       PRES   REMARKS
MANITOWISH WTR SUNNY     56  32  40 N3        30.09F
ARBOR VITAE    MOSUNNY   58  33  38 NW9       30.09F
WOODRUFF       MOSUNNY   58  33  38 NW9       30.09F
RHINELANDER    PTSUNNY   57  31  37 VRB5      30.09F
EAGLE RIVER    MOSUNNY   55  29  36 N6        30.09F
LAND O LAKES   PTSUNNY   57  29  34 N9        30.10S
PHILLIPS       MOSUNNY   57  35  43 W3        30.09F
TOMAHAWK       PTSUNNY   56  32  39 NW7       30.09F
MEDFORD        SUNNY     55  37  49 SE6       30.10S
MERRILL        MOSUNNY   58  33  40 NW6       30.10S
$$

WIZ029-030-035-036-043>047-021700-
CENTRAL WISCONSIN

CITY           SKY/WX    TMP DP  RH WIND       PRES   REMARKS
WAUSAU         MOSUNNY   60  33  36 NW6       30.08F
MOSINEE        SUNNY     55  34  44 N6        30.11F
MARSHFIELD     SUNNY     58  35  42 VRB3      30.10S
STEVENS POINT  SUNNY     56  31  39 NE9       30.10F
WAUPACA        SUNNY     60  31  33 N8        30.10F
WAUTOMA        SUNNY     57  31  37 VRB3      30.11S
WISC RAPIDS    SUNNY     58  31  35 CALM      30.12S
CAMP DOUGLAS   MOSUNNY   57  41  54 VRB3      30.11S
$$

WIZ011>013-019>022-031-037>040-048>050-021700-
NORTHEAST WISCONSIN

CITY           SKY/WX    TMP DP  RH WIND       PRES   REMARKS
ANTIGO         SUNNY     56  32  40 CALM      30.09F
SHAWANO        SUNNY     60  30  31 E5        30.09F
OCONTO         SUNNY     58  32  37 N6        30.08F
STURGEON BAY   SUNNY     52  36  54 N14       30.11S
GREEN BAY      LGT RAIN  58  36  43 E5        30.09F
MANITOWOC      SUNNY     57  37  47 MISG      30.08F
APPLETON       SUNNY     55  32  41 N10G16    30.08F
CLINTONVILLE   SUNNY     59  30  33 CALM      30.09F
OSHKOSH        SUNNY     56  38  50 E8        30.09S
$$

WIZ032>034-041-042-053>061-021700-
SOUTHWEST WISCONSIN

CITY           SKY/WX    TMP DP  RH WIND       PRES   REMARKS
LA CROSSE      SUNNY     57  39  51 S6        30.11F
SPARTA         MOSUNNY   58  38  47 SE3       30.12S
VIROQUA        SUNNY     55  37  50 CALM      30.11S
BOSCOBEL       SUNNY     58  40  51 VRB3      30.11F
PRAIRIE DU CHI SUNNY     51  50  95 CALM      30.12S
PLATTEVILLE    MOSUNNY   56  42  60 N6        30.10S
$$

WIZ056-057-062-063-064-067-068-021700-
SOUTH CENTRAL WISCONSIN

CITY           SKY/WX    TMP DP  RH WIND       PRES   REMARKS
REEDSBURG      SUNNY     55  37  50 N5        30.10F
BARABOO/DELLS  SUNNY     56  35  45 N5        30.10F
LONE ROCK      SUNNY     57  40  52 CALM      30.11F
MINERAL POINT  SUNNY     57  37  47 CALM      30.09F
MADISON        MOSUNNY   58  40  51 NE9       30.09F
MIDDLETON      SUNNY     57  40  54 NE7       30.10S
WATERTOWN      SUNNY     57  40  52 N5        30.08F
MONROE         SUNNY     55  37  50 E7        30.08F
JANESVILLE     MOSUNNY   57  37  47 NE9       30.08S
$$

WIZ051-052-058>065-066-070>072-021700-
SOUTHEAST WISCONSIN

CITY           SKY/WX    TMP DP  RH WIND       PRES   REMARKS
MILWAUKEE      MOSUNNY   50  39  66 NE10      30.09R
WAUKESHA       MOSUNNY   54  36  50 NE6       30.09S
MILWAUKEE/TIMM SUNNY     54  34  47 N6        30.09S
RACINE         SUNNY     50  39  66 N12       30.10R
BURLINGTON     SUNNY     56  37  47 NE10      30.07F
KENOSHA        SUNNY     56  38  50 NE10      30.08R
FOND DU LAC    SUNNY     55  39  54 VRB5      30.10S
SHEBOYGAN      SUNNY     52  38  58 E7        30.09R
WEST BEND      SUNNY     55  34  44 NE7       30.08S
JUNEAU         SUNNY     56  37  50 N7        30.10S
$$

LSZ147-162-021700-
LAKE SUPERIOR

STATION/POSITION TIME  TEMP    WIND        PRES    WAVE
                       AIR SEA DIR/SP/G            HT/PER
                 (UTC) (F)     (DEG/KT/KT) (MB)    (FT/S)
W MID LAKE BUOY  1550   38 37  170/  2/  2 1020.9F   1
DEVILS ISLAND    1600   41     340/  3/  3 1020.7F
SAXON HARBOR     1500   41      30/  2/  3 1020.0
$$

LMZ867-665-643>646-021700-
LAKE MICHIGAN

STATION/POSITION TIME  TEMP    WIND        PRES    WAVE
                       AIR SEA DIR/SP/G            HT/PER
                 (UTC) (F)     (DEG/KT/KT) (MB)    (FT/S)
CHAMBERS ISLAND  1500   47      70/  3/  5 1019.3F
N MID LAKE BUOY  1550   40 39  290/  2/  2 1018.9F   0
NORTHPORT PIER   1500   43     320/  6/  7 1019.3F
KEWAUNEE LAKESHO 1500   50      70/  4/  6 1018.1F
SHEBOYGAN LAKESH 1600   43      50/ 10/ 10 1019.9R
PORT WASHINGTON  1540   48      50/ 10/ 12 1020.0R
S MID LAKE BUOY  1550   41 40  340/  8/  8 1018.3R   1/ 4
KENOSHA   LAKESH 1600   45      30/ 14/ 15 1018.3S
$$

TC  - TEMPERATURE IN CELSIUS
VSB - VISIBILITY IN STATUTE MILES
WCI - WIND CHILL INDEX
HX  - HEAT INDEX





USA.gov is the U.S. government's official web portal to all federal, state and local government web resources and services.